sat.trackr.live / text

‹ back to catalog

SHIJIAN-6 01B (SJ-6 01B)

NORAD 28414 · 2004-035B

PAYLOAD ACTIVE UNKNOWN

§ Identity

Operator
Country
PRC
Launch date
2004-09-08
Launch site
TAISC
Launch vehicle
Mass (kg)
RCS (m²)
2.37

External: N2YO · Heavens-Above · Gunter

§ Orbital elements

Epoch: 2026-09-15T23:24:12.497760Z

Period
95.56 min
Inclination
97.6050°
Eccentricity
0.0004608
Mean motion
15.06865525 rev/d
Perigee alt
542.6 km
Apogee alt
549.0 km
Semi-major
6,923.9 km
B*
1.1972e-4
RAAN
275.7106°
Arg perigee
168.1886°
Mean anomaly
191.9450°
Rev number
20,049

§ Raw data

SHIJIAN-6 01B (SJ-6 01B)1 28414U 04035B   26258.97514465  .00001724  00000+0  11972-3 0  99912 28414  97.6050 275.7106 0004608 168.1886 191.9450 15.06865525200499

JSON: /api/v1/satellites/28414 · /tle

For live sub-satellite position, see the globe view (requires WebGL).

§ Visibility from observer

Set your observer location to see the next 7 days of passes ≥ 10°. The values pass through the URL so the page stays shareable.

No JS? Fill the form by hand. The geolocation button needs JavaScript.